Other Surface Observations
Issued by NWS

Home | Current Version | Previous Version | Text Only | Print | Product List | Glossary On
Versions: 1 2 3 4 5 6 7 8 9 10 11 12 13 14 15 16 17 18 19 20 21 22 23 24 25 26 27 28 29 30 31 32 33 34 35 36 37 38 39 40 41 42 43 44 45 46 47 48 49 50
000
SXUS52 KTAE 251418
OSOTAE
OSOTAE
North Florida/South Alabama/Southwest Georgia Weather Roundup
National Weather Service Tallahassee Florida
1000 AM EDT THU MAY 25 2017

Note: "fair" indicates few or no clouds below 12,000 feet with no
significant weather and/or obstructions to visibility.

!FLZ017-115-028-034-025-251500
...North Florida...

CITY           SKY/WX    TMP DP  RH WIND       PRES   REMARKS
TALLAHASSEE    SUNNY     69  53  56 NW14      29.85R
APALACHICOLA   SUNNY     72  57  59 NW12G21   29.86R
PERRY          SUNNY     71  54  56 W14       29.87R
CROSS CITY     SUNNY     70  54  56 NW13      29.87R
JACKSONVILLE   PTSUNNY   71  52  50 W14G21    29.81R
$$

!FLZ112-006-005-002-011-251500
...Florida Panhandle...

CITY           SKY/WX    TMP DP  RH WIND       PRES   REMARKS
MARIANNA       SUNNY     69  53  56 W12       29.85R
BONIFAY        NOT AVBL
PANAMA CITY NW FAIR      70  52  52 W14       29.85R
TYNDALL AFB    SUNNY     71  51  48 NW15      29.87R
TYND DRONE APT FAIR      71  54  54 NW8G20    29.87R
DE FUNIAK SPR  FAIR      67  51  57 NW7       29.87S
EGLIN AFB      SUNNY     70  50  48 NW10      29.87R
DESTIN         SUNNY     73  55  53 NW9       29.87R
HURLBURT       SUNNY     70  48  44 W6        29.86R
CRESTVIEW      SUNNY     68  51  54 W8        29.88R
PENSACOLA      SUNNY     71  51  49 W8        29.88R
$$

!ALZ063-066-251500
...South Alabama...

CITY           SKY/WX    TMP DP  RH WIND       PRES   REMARKS
DOTHAN         SUNNY     66  52  60 W14       29.88R
OZARK CAIRNS   SUNNY     67  51  57 W12       29.85R
FT RUCKER HELI SUNNY     65  51  58 W7        29.84R
RUCKER HELI 3  FAIR      65  50  57 NW10      29.84R
RUCKER HELI 2  FAIR      65  51  61 NW7       29.84R
FLORALA APT    SUNNY     67  52  58 VRB6      29.87R
ANDALUSIA      SUNNY     69  50  50 W12       29.85R
TROY           SUNNY     63  50  62 W8        29.85R
EUFALA         FAIR      67  52  58 W8        29.82R
MOBILE         SUNNY     66  54  65 SW6       29.89R
$$

!GAZ120>161-251500
...Southwest and South Central Georgia...

CITY           SKY/WX    TMP DP  RH WIND       PRES   REMARKS
THOMASVILLE    FAIR      68  55  64 NW14G21   29.85R
BAINBRIDGE     SUNNY     68  54  60 W17       29.85R
MOODY AFB      SUNNY     68  53  58 W14G21    29.82R
VALDOSTA       SUNNY     68  56  65 W8        29.83R
MOULTRIE       SUNNY     68  52  56 W9        29.84R
BLAKELY        SUNNY     68  52  56 W8G17     29.85R
ALBANY         MOSUNNY   68  52  56 W14       29.84R
TIFTON         FAIR      66  53  61 W10       29.81R
FITZGERALD     FAIR      67  56  67 W13       29.83R
CORDELE        PTSUNNY   67  55  65 W12       29.82S
AMERICUS       FAIR      63  50  63 W13       29.83R
HOMERVILLE     FAIR     N/A N/A N/A W12G21    29.82R
$$

!GMZ750-755-770-775-251500
...Coastal and Buoy Obs...

STATION/POSITION TIME  TEMP    WIND        PRES    VSBY  WAVE
                       AIR SEA DIR/SP/G                  HT/PER
                 (UTC) (F)     (DEG/KT/KT) (MB)    (MI)  (FT/S)
KEATON BEACH     1400   69     310/ 13/ 16 1011.1R
CEDAR KEY        1400   71     350/ 10/ 13 1011.7R
C TOWER          1400   70     320/ 14/ 15 1011.7R
APALACHICOLA BUO 1350   74 76  320/ 17/ 21 1010.9R         7/ 7
PANAMA CITY BUOY 1350   74 77  320/ 14/ 19 1011.2R         6/ 7
MOBILE BUOY      1400   73 77  300/ 12/ 16 1012.4
ORANGE BCH AL BU 1350   69 76  320/ 12/ 14 1011.5R         3/ 7
$$




USA.gov is the U.S. government's official web portal to all federal, state and local government web resources and services.